Asheville, NC

8:31 PM EST on November 15, 2019 (GMT -0500)
Asheville Regional

Weather History for KAVL - June, 2019

Change the Weather History Date:

Saturday, June 1, 2019

  Actual Average Record
Temperature  
Mean Temperature 69 °F 67 °F  
Max Temperature 82 °F 78 °F 93 °F (1945)
Min Temperature 56 °F 56 °F 37 °F (1984)
Degree Days  
Heating Degree Days 0 1  
Month to date heating degree days 0 1  
Since 1 June heating degree days 0 1  
Since 1 July heating degree days 3552 4182  
Cooling Degree Days 4 4  
Month to date cooling degree days 4 4  
Year to date cooling degree days 181 62  
Since 1 June cooling degree days 4 4  
Growing Degree Days 18 (Base 50)    
Moisture  
Dew Point 52 °F    
Average Humidity 60    
Maximum Humidity 86    
Minimum Humidity 33    
Precipitation  
Precipitation 0.00 in 0.14 in 3.89 in (1987)
Month to date precipitation 0.00 0.14  
Year to date precipitation 27.14 18.39  
Snow  
Snow 0.00 in 0.00 in 0.00 in ()
Month to date snowfall 0.0 0.0  
Since 1 June snowfall 0.0 0.0  
Since 1 July snowfall 11.4 9.9  
Snow Depth 0.00 in    
Sea Level Pressure  
Sea Level Pressure 29.89 in    
Wind  
Wind Speed 7 mph (NNW)    
Max Wind Speed 20 mph    
Max Gust Speed 26 mph    
Visibility 10 miles    
Events      
T = Trace of Precipitation, MM = Missing Value Source: NWS Daily Summary

Daily Weather History Graph

Daily Weather History Graph

Search for Another Location

Airport or City:

Astronomy

Jun. 01, 2019 Rise Set
Actual Time 6:16 AM EDT 8:39 PM EDT
Civil Twilight 5:46 AM EDT 9:09 PM EDT
Nautical Twilight 5:10 AM EDT 9:45 PM EDT
Astronomical Twilight 4:31 AM EDT 10:25 PM EDT
Moon 5:13 AM EDT (6/1) 6:57 PM EDT (6/1)
Length of Visible Light 15h 22m
Length of Day
14h 23m
Waning Crescent, 4% of the Moon is Illuminated
Jun 1
Waning Crescent
Jun 3
New
Jun 10
First Quarter
Jun 17
Full
Jun 25
Last Quarter

Hourly Weather History & Observations

Time (EDT) Temp. Dew Point Humidity Pressure Visibility Wind Dir Wind Speed Gust Speed Precip Events Conditions
12:54 AM 57.9 °F 53.1 °F 84% 29.91 in 10.0 mi SW 3.5 mph - N/A   Clear
1:54 AM 60.1 °F 53.1 °F 78% 29.89 in 10.0 mi NNW 3.5 mph - N/A   Clear
2:54 AM 59.0 °F 54.0 °F 83% 29.89 in 10.0 mi NNW 6.9 mph - N/A   Clear
3:54 AM 61.0 °F 54.0 °F 78% 29.88 in 10.0 mi North 5.8 mph - N/A   Mostly Cloudy
4:54 AM 60.1 °F 53.1 °F 78% 29.89 in 10.0 mi North 6.9 mph - N/A   Clear
5:54 AM 57.0 °F 53.1 °F 87% 29.90 in 10.0 mi West 4.6 mph - N/A   Clear
6:54 AM 59.0 °F 53.1 °F 81% 29.93 in 10.0 mi North 4.6 mph - N/A   Clear
7:54 AM 61.0 °F 54.0 °F 78% 29.93 in 10.0 mi North 6.9 mph - N/A   Partly Cloudy
8:54 AM 64.9 °F 54.0 °F 68% 29.94 in 10.0 mi North 10.4 mph - N/A   Clear
9:54 AM 69.1 °F 55.0 °F 61% 29.94 in 10.0 mi North 12.7 mph - N/A   Clear
10:54 AM 72.0 °F 52.0 °F 49% 29.92 in 10.0 mi North 15.0 mph - N/A   Clear
11:54 AM 75.0 °F 50.0 °F 41% 29.91 in 10.0 mi North 13.8 mph 19.6 mph N/A   Clear
12:54 PM 75.9 °F 51.1 °F 42% 29.91 in 10.0 mi NW 15.0 mph - N/A   Clear
1:54 PM 78.1 °F 51.1 °F 39% 29.88 in 10.0 mi NNW 6.9 mph - N/A   Clear
2:54 PM 79.0 °F 51.1 °F 38% 29.87 in 10.0 mi North 5.8 mph 17.3 mph N/A   Clear
3:54 PM 80.1 °F 52.0 °F 38% 29.85 in 10.0 mi NNW 8.1 mph - N/A   Clear
4:54 PM 81.0 °F 48.0 °F 31% 29.85 in 10.0 mi Calm Calm - N/A   Mostly Cloudy
5:54 PM 80.1 °F 50.0 °F 35% 29.85 in 10.0 mi Variable 4.6 mph - N/A   Clear
6:54 PM 78.1 °F 50.0 °F 37% 29.85 in 10.0 mi NNW 12.7 mph - N/A   Mostly Cloudy
7:54 PM 75.0 °F 51.1 °F 43% 29.86 in 10.0 mi NNW 10.4 mph - N/A   Partly Cloudy
9:54 PM 71.1 °F 52.0 °F 51% 29.87 in 10.0 mi Variable 3.5 mph - N/A   Scattered Clouds
10:54 PM 69.1 °F 52.0 °F 54% 29.88 in 10.0 mi NNW 4.6 mph - N/A   Partly Cloudy
11:54 PM 66.0 °F 53.1 °F 63% 29.88 in 10.0 mi NNW 4.6 mph - N/A   Partly Cloudy